RH
100 100 100 100 100 100 100 98 98 99 97 95 95 84 79 71 62 55 52 46 44 42 44 43 46 44 43 43 41 38 34 30 25 24 24 25 30 36 43 47 50 56 68 71 73 62 52 45 33 29 28 24 21 18
100 100 100 100 100 100 100 99 96 97 93 86 81 83 81 77 69 64 59 57 54 52 48 44 42 38 31 25 25 27 25 22 20 23 25 25 24 23 24 27 27 31 38 40 42 45 40 39 30 24 22 22 21 22
100 100 100 100 100 100 98 92 92 90 73 78 81 82 82 76 70 66 65 61 57 50 45 42 37 32 28 25 22 21 18 16 16 14 13 12 13 17 21 19 18 21 20 23 24 28 28 25 25 27 26 24 23 21
100 100 100 98 98 98 94 92 94 89 83 78 70 66 68 70 67 58 49 45 43 39 35 32 28 26 24 25 24 25 22 18 16 15 14 13 12 10 10 11 14 17 16 18 20 18 16 17 19 20 18 19 18 17
100 100 100 96 96 97 100 100 95 81 70 74 72 70 62 55 50 40 31 30 31 30 28 25 22 17 13 12 11 11 11 11 10 10 11 12 11 11 12 12 13 12 11 12 16 16 17 16 18 18 17 18 16 10
98 98 96 98 100 100 94 84 73 70 71 68 61 56 40 30 26 29 28 23 20 16 15 13 11 11 10 10 9 9 9 9 8 9 8 8 8 9 10 10 10 10 10 11 10 13 14 15 15 13 12 11 10 9
99 100 100 100 94 86 79 74 72 71 63 50 38 27 29 31 27 21 19 16 13 11 9 9 9 12 12 12 13 14 12 12 11 9 8 9 8 9 7 7 8 9 9 9 9 10 9 9 9 12 13 12 9 8
100 99 91 83 80 75 73 70 58 47 36 26 27 30 26 21 17 14 11 10 10 10 11 11 14 19 25 24 28 32 27 22 19 17 14 14 10 9 6 7 7 6 6 6 7 8 8 8 8 7 9 11 11 10
91 87 84 79 75 70 56 47 35 26 28 29 24 20 17 13 10 10 11 14 16 18 16 15 19 21 21 22 23 28 29 28 46 46 32 25 24 63 42 18 11 7 5 4 5 5 5 6 7 7 7 7 6 8
81 80 76 74 66 53 38 27 26 25 23 22 17 13 11 11 13 15 18 20 18 19 19 18 18 18 18 24 35 47 97 100 100 100 100 100 100 100 100 100 92 16 11 8 7 8 8 7 7 7 7 7 7 8
76 74 73 65 46 33 27 25 25 22 17 13 11 12 14 17 23 30 27 21 23 29 31 26 19 18 31 58 80 97 100 100 100 100 100 100 100 98 100 99 100 91 42 28 41 35 24 26 26 22 17 12 8 7
74 68 54 39 29 25 25 21 17 14 12 12 14 18 22 32 36 38 39 37 34 33 29 28 22 31 76 85 98 100 100 100 100 100 100 97 100 100 100 92 96 92 80 63 45 50 52 54 55 59 44 23 13 11
65 52 36 27 24 22 17 13 12 13 16 20 25 32 34 34 34 38 43 37 39 36 38 35 57 77 91 94 100 100 100 100 100 95 100 100 100 100 100 100 100 98 87 69 65 76 67 54 48 47 47 51 59 61
46 32 25 22 17 14 13 14 17 20 29 36 36 37 37 44 40 38 38 38 37 36 36 58 76 100 100 100 100 100 100 100 100 100 100 100 100 100 100 100 100 100 100 87 89 74 71 85 85 74 72 61 50 42
27 22 17 14 15 16 20 23 29 37 39 38 35 42 41 42 40 33 30 36 38 34 42 73 93 100 100 100 100 100 100 100 100 97 100 100 100 100 100 100 100 100 100 100 100 99 74 75 94 100 96 87 60 34
17 15 16 19 23 28 36 41 44 43 45 40 43 40 43 40 38 29 29 33 34 30 47 80 98 100 100 100 100 97 77 79 92 98 94 96 99 99 99 99 100 100 100 80 100 99 96 100 100 99 100 76 70 62
17 20 25 34 38 46 53 52 53 50 46 38 42 40 33 28 28 30 28 28 30 32 58 85 100 100 100 100 92 81 88 100 100 100 94 85 88 85 85 91 100 100 98 100 100 100 100 100 100 100 92 100 100 94
26 30 39 47 47 63 70 74 60 46 42 39 33 33 30 29 30 31 29 28 26 28 62 87 100 100 100 100 100 100 100 100 99 90 100 100 100 100 99 92 89 100 93 98 100 99 71 100 96 99 100 100 100 100
35 41 45 48 56 77 85 83 58 52 52 41 37 36 37 36 33 31 30 28 22 31 64 87 98 100 95 98 100 100 100 100 100 100 100 100 100 100 100 100 100 100 86 100 97 90 100 100 100 100 100 100 100 100
40 36 42 58 76 94 89 69 55 58 55 45 46 51 51 50 44 37 32 23 18 38 68 96 100 100 97 90 99 100 100 100 100 100 100 100 99 100 100 100 100 90 81 88 90 100 100 100 100 100 100 100 100 100
31 38 47 67 93 90 81 63 62 69 55 54 57 73 85 76 52 37 26 18 22 63 95 98 93 84 79 96 100 100 100 100 100 100 100 96 98 100 100 100 92 91 85 88 100 100 100 100 100 100 100 100 98 100
46 53 67 83 86 81 83 92 76 64 59 56 67 99 100 98 52 26 21 28 66 85 88 82 81 85 87 100 100 100 100 100 100 100 100 100 100 100 100 100 100 96 99 100 100 100 100 100 100 100 100 100 100 100
50 59 77 90 88 74 80 88 69 55 53 58 77 99 100 89 30 25 53 85 96 95 71 72 83 87 97 100 100 100 100 100 100 100 100 100 100 100 100 100 100 100 100 100 100 100 100 100 100 100 100 100 100 100
93 88 96 88 74 72 82 85 56 48 61 61 88 97 90 56 75 96 100 94 78 61 79 88 95 100 100 100 100 100 100 100 100 100 100 100 100 100 100 100 100 100 100 100 100 100 100 100 100 100 100 100 100 100
88 97 85 89 84 80 87 81 52 51 70 68 96 95 74 98 100 100 98 78 70 82 90 99 100 100 100 100 100 100 100 100 100 100 100 100 100 100 100 100 100 100 100 100 100 100 100 100 100 100 100 100 100 100
76 81 88 99 97 80 73 67 49 63 68 88 100 99 83 100 100 97 89 75 81 81 99 100 100 100 100 100 100 100 100 100 100 100 100 100 100 100 100 100 100 100 99 98 100 100 100 100 100 100 100 100 100 100
74 73 74 98 94 84 76 62 50 73 67 97 100 89 79 97 95 85 72 74 78 97 100 100 100 100 100 100 100 100 100 100 100 100 100 100 100 100 100 100 100 100 100 96 98 98 100 100 100 100 100 100 100 100
94 100 98 100 98 83 68 54 59 80 68 97 100 91 87 100 100 96 83 77 88 100 100 100 100 100 100 100 100 100 100 100 100 100 100 100 100 100 100 100 100 100 100 100 100 100 100 100 100 100 100 100 100 97
93 100 100 94 71 68 65 58 61 86 68 96 100 96 98 100 100 99 91 93 99 100 100 100 100 100 100 100 100 100 100 100 100 100 100 100 100 100 100 100 100 100 100 100 100 100 100 100 100 100 100 100 99 80
81 93 98 98 94 92 71 59 60 92 82 100 100 96 100 100 100 94 98 100 100 100 100 100 100 100 100 100 100 100 100 100 100 100 100 100 100 100 100 100 100 100 100 100 100 100 100 100 100 100 100 99 98 97
78 92 98 88 74 62 56 57 62 96 99 100 100 99 100 100 100 100 100 100 100 100 100 100 100 100 100 100 100 100 100 100 100 100 100 100 100 100 100 100 100 100 100 100 100 100 100 100 100 100 100 100 100 100
75 84 86 78 60 56 52 49 58 97 100 100 100 100 100 100 100 100 100 100 100 100 100 100 100 100 100 100 100 100 100 100 100 100 100 100 99 100 100 100 100 100 100 100 100 100 100 100 100 100 100 100 100 100
75 69 71 74 71 52 48 47 47 77 100 100 100 100 100 100 100 100 100 100 100 100 100 100 100 100 100 100 100 100 100 100 100 100 100 100 100 98 99 100 100 100 100 100 100 100 100 100 100 100 100 100 100 100
Wind_Speed
35 34 32 34 33 33 31 29 31 33 34 35 36 36 36 37 37 37 35 35 35 37 36 34 33 33 33 33 32 33 34 35 35 35 36 37 37 37 39 39 38 37 37 37 34 35 36 23 30 28 27 25 26 24
32 30 30 33 32 33 33 33 32 33 35 37 37 37 39 38 38 36 37 36 36 35 35 36 36 38 38 38 37 38 40 41 41 41 42 41 40 39 38 37 36 37 37 40 39 37 37 36 30 28 26 28 30 27
32 32 31 30 31 33 33 34 37 35 35 36 36 36 37 37 36 36 36 35 35 35 39 40 41 43 45 45 45 45 47 49 49 51 49 48 47 44 43 39 36 35 37 39 39 38 36 35 31 28 32 35 31 26
28 26 27 30 30 32 33 33 31 32 34 36 37 38 38 35 33 34 35 37 39 41 43 47 49 50 51 52 52 54 56 57 58 58 57 56 54 51 46 44 43 42 41 41 38 36 34 33 36 38 37 35 31 28
24 27 29 31 30 30 31 31 32 34 36 36 34 34 33 33 36 38 40 43 47 48 51 53 56 56 55 56 57 60 62 64 64 64 64 64 61 58 56 56 50 49 47 45 42 43 41 38 38 39 39 37 34 32
28 29 31 29 28 29 31 32 34 34 32 33 32 34 35 37 39 44 48 52 54 56 58 58 58 52 52 53 54 57 60 62 64 65 65 65 58 59 65 66 57 55 53 49 47 49 48 47 45 42 42 41 38 36
30 30 29 29 31 31 31 31 31 31 31 32 34 36 40 45 48 51 54 55 56 56 55 54 50 43 43 45 47 50 53 54 55 55 53 50 50 54 64 70 52 47 50 49 51 55 55 53 49 48 48 44 41 38
28 29 30 29 28 29 29 28 29 31 33 34 38 43 47 50 53 55 53 51 49 47 44 41 34 32 32 33 39 41 42 42 38 36 31 34 34 42 50 39 45 47 53 59 60 64 64 57 56 52 51 48 47 43
27 26 27 28 28 28 28 30 32 33 36 41 45 48 51 52 50 46 42 36 33 34 34 29 26 26 25 23 24 20 16 14 12 11 16 17 10 9 14 23 28 37 45 53 62 62 57 50 47 48 48 48 47 44
26 27 27 28 28 29 31 32 35 38 42 46 47 49 47 41 35 30 26 27 27 26 25 24 23 21 17 13 10 6 2 1 2 7 6 7 5 7 5 2 8 28 39 45 46 41 40 39 39 41 41 42 39 40
27 27 27 28 30 32 33 36 40 43 45 45 43 38 32 24 19 19 21 23 22 22 23 22 19 12 5 4 2 2 6 10 9 6 11 14 17 16 17 16 10 9 10 14 9 10 8 12 14 13 18 22 27 30
27 27 28 30 32 35 38 41 42 42 41 36 29 22 17 16 16 19 22 23 21 20 17 13 4 6 6 1 4 7 10 11 12 16 16 17 12 9 4 4 5 12 15 15 11 11 13 15 15 15 14 22 30 31
28 30 32 34 36 39 39 38 36 32 26 20 15 15 16 19 19 19 20 23 21 17 8 7 11 11 5 1 6 9 11 14 10 14 10 10 14 13 9 8 5 6 7 8 11 11 10 12 20 20 15 19 22 25
32 33 35 37 38 36 33 29 24 18 13 14 15 17 17 16 17 18 21 21 18 10 9 15 12 9 4 3 5 9 12 14 14 11 12 15 13 5 8 6 5 4 5 6 8 11 10 11 13 15 19 21 23 25
35 36 35 32 29 26 23 19 14 11 12 14 15 15 13 17 20 20 20 19 14 10 18 18 12 6 4 3 4 7 10 10 14 15 16 13 7 3 1 1 2 8 6 5 6 9 12 13 17 13 14 25 24 31
34 30 26 23 20 18 14 11 11 13 15 16 17 18 19 20 20 21 19 17 13 14 22 17 14 6 2 2 2 1 3 6 10 11 11 7 5 3 2 3 1 7 13 17 9 11 13 17 18 12 17 25 28 34
26 21 19 16 14 11 10 10 13 17 18 17 17 19 22 22 21 19 18 14 13 18 23 19 15 9 6 4 3 4 5 7 8 11 11 3 3 4 4 4 5 10 11 10 17 17 12 10 16 15 14 24 28 32
20 17 15 13 12 11 11 12 17 19 17 19 20 21 21 21 20 17 15 14 17 24 27 20 16 10 8 8 5 3 5 5 11 8 3 4 5 5 4 6 12 16 15 16 22 16 14 14 19 20 22 23 25 25
16 14 14 13 13 12 12 14 18 18 20 23 22 21 20 19 18 15 16 15 22 30 27 19 14 13 12 9 6 5 4 5 6 9 6 4 3 1 4 8 17 21 22 23 20 17 13 18 19 19 19 22 27 30
14 14 14 14 12 11 13 14 15 19 23 24 22 18 17 17 18 17 17 20 28 31 23 16 13 12 10 10 10 8 4 6 8 8 6 6 3 9 13 15 22 24 25 21 21 14 14 19 20 22 24 27 28 25
12 14 14 13 10 10 13 14 16 20 23 22 18 15 11 11 13 17 20 27 30 26 19 14 9 9 14 12 11 8 8 10 8 5 5 9 8 8 13 20 24 27 25 23 18 17 19 21 27 27 25 23 22 19
11 12 13 12 11 10 12 16 17 19 21 20 15 8 4 6 8 15 23 26 28 23 16 13 10 12 12 8 6 7 8 6 1 9 13 9 8 14 21 24 26 26 24 23 23 18 19 25 25 24 22 19 18 17
9 8 10 13 14 12 10 15 17 19 19 15 10 4 3 2 10 21 29 28 24 18 15 12 9 10 8 6 6 7 4 2 12 16 12 12 17 23 27 27 25 25 26 21 20 24 26 24 21 18 19 18 17 16
6 8 10 13 11 10 10 13 16 16 16 11 6 3 1 11 26 29 27 24 20 18 12 10 8 8 8 5 5 3 3 11 18 16 13 19 25 28 27 23 25 25 27 27 29 27 24 19 17 18 17 16 17 17
12 16 12 7 9 10 13 15 16 15 11 6 3 4 9 26 27 24 23 22 19 12 11 12 12 8 5 3 3 4 8 15 17 15 18 24 28 28 26 27 25 24 23 22 20 17 14 14 15 15 15 16 16 17
15 16 14 12 13 13 13 13 12 12 6 5 7 7 20 24 23 20 19 18 14 12 12 14 12 8 5 3 1 7 11 16 18 17 20 23 27 27 25 24 24 24 21 19 17 16 15 15 15 15 15 15 17 18
14 14 15 16 16 14 12 12 10 8 4 10 10 12 22 23 21 20 19 16 12 13 14 14 11 8 5 3 4 9 13 17 19 20 23 25 25 27 26 23 20 18 16 16 16 17 16 15 14 15 16 16 17 22
6 6 8 10 11 11 10 7 6 5 7 13 12 15 23 23 20 19 17 14 14 14 16 15 12 8 6 2 7 10 13 17 20 21 24 26 26 23 20 19 17 15 13 13 15 15 15 14 14 15 17 20 22 22
8 13 14 14 11 9 7 5 4 4 11 15 14 17 21 22 20 18 16 15 15 14 16 16 13 10 7 4 7 11 14 17 19 21 23 24 23 21 20 19 18 18 18 15 13 13 14 15 17 20 22 23 24 21
3 3 4 5 6 5 4 5 3 5 12 14 15 17 19 20 19 18 14 13 14 13 14 15 14 12 10 6 9 11 14 16 18 20 22 23 23 23 22 21 21 21 19 16 14 13 13 17 19 22 22 22 22 22
4 3 2 2 1 2 3 3 3 7 14 14 14 15 17 19 19 17 12 12 14 13 12 12 13 13 11 8 9 12 13 14 16 18 22 23 22 20 20 19 18 17 16 16 15 13 15 17 17 17 18 18 17 18
1 2 1 1 4 5 3 2 4 8 14 14 12 15 17 18 18 18 14 12 13 12 11 10 10 12 13 11 11 12 13 15 17 18 22 26 27 24 18 15 10 13 18 20 20 19 18 17 16 16 15 15 15 15
8 5 3 2 3 1 4 4 4 7 13 15 13 14 18 18 16 18 16 14 13 13 13 11 10 10 11 12 12 13 14 15 17 21 24 27 27 27 26 23 21 18 18 20 20 20 20 20 19 18 16 16 17 18
Wind_Direction
246 248 250 257 256 256 257 261 264 268 269 268 269 270 273 272 270 271 273 273 277 279 278 276 277 277 276 274 274 273 271 271 268 267 267 266 264 261 258 257 255 253 254 252 252 253 255 253 252 254 251 247 250 249
240 242 248 248 250 253 252 259 264 269 272 273 275 277 274 271 271 273 274 275 275 274 275 275 277 278 278 277 275 274 273 271 268 266 266 265 266 266 264 263 260 257 256 255 250 251 252 256 253 254 255 253 253 253
237 243 248 249 254 256 260 262 269 272 272 276 276 275 275 274 274 274 275 275 276 278 278 280 280 279 278 278 278 278 276 273 271 268 266 266 264 263 262 261 259 256 254 252 253 253 253 252 255 252 244 245 251 258
238 241 251 251 254 260 267 270 270 273 274 275 276 276 275 275 276 276 277 279 281 281 282 281 281 281 280 281 280 277 275 274 272 270 270 270 268 267 263 260 257 255 254 252 251 254 255 252 247 244 246 249 251 252
246 249 255 262 266 268 267 269 271 273 274 274 275 275 275 277 280 284 285 286 285 284 283 284 284 284 283 281 278 276 274 272 271 271 271 270 269 269 268 265 264 262 261 258 255 253 249 246 248 248 248 252 254 251
254 260 266 265 264 268 271 274 273 274 276 276 275 277 281 284 287 288 288 287 287 287 286 285 285 283 281 279 276 273 272 272 271 270 270 270 274 271 265 261 259 257 257 255 254 254 251 248 245 246 250 250 249 250
261 262 260 266 269 270 271 274 276 274 273 277 282 285 288 290 289 289 289 289 287 288 288 288 287 286 282 277 274 272 272 274 275 277 277 275 270 266 262 259 263 262 258 255 250 250 249 250 248 246 248 249 248 246
260 264 266 269 270 272 272 272 273 277 281 284 288 291 292 291 292 290 290 290 291 290 291 292 294 284 278 272 269 272 278 284 291 289 286 279 270 267 270 271 259 250 246 245 245 243 245 247 252 252 251 249 250 251
263 264 266 269 270 270 271 276 280 282 287 291 292 292 292 290 291 293 293 293 292 295 296 299 292 284 285 284 285 284 293 297 295 298 298 307 298 300 282 262 258 249 244 239 243 247 252 253 253 251 248 249 248 245
268 269 270 269 270 273 278 280 284 288 291 293 292 291 291 293 293 294 296 294 296 299 302 300 293 293 289 281 285 313 30 5 96 347 323 117 87 124 108 149 275 242 236 233 239 247 250 250 249 247 245 244 242 237
268 267 268 270 275 279 282 287 290 292 293 292 290 290 292 294 296 297 295 295 304 304 302 298 292 292 271 249 168 30 12 14 25 44 93 98 87 61 33 18 38 253 260 250 252 245 228 218 217 221 230 215 214 221
269 271 274 277 280 283 287 289 291 291 289 289 289 292 294 290 290 291 292 300 306 312 306 289 269 181 183 155 3 339 346 2 28 60 91 91 76 79 57 314 262 221 221 221 227 230 211 204 195 209 217 208 196 193
273 277 280 282 284 287 288 288 288 287 288 288 289 288 288 287 287 283 289 297 308 312 288 210 177 168 211 348 340 352 24 48 81 61 48 29 4 356 5 23 297 283 252 220 195 202 191 193 195 195 187 184 179 185
279 281 283 285 287 288 287 286 284 283 280 283 289 286 286 286 277 275 278 289 300 300 220 193 189 189 262 330 334 12 41 40 21 2 335 327 330 359 35 58 179 231 237 221 214 215 196 196 183 180 186 188 186 185
283 285 287 286 286 285 282 277 275 273 276 280 286 292 287 274 272 278 283 286 302 265 207 198 198 198 239 317 16 48 33 4 325 341 343 337 333 336 260 315 106 197 174 151 146 142 154 187 192 172 182 182 180 176
285 286 283 283 280 272 265 262 268 274 280 295 298 292 285 283 280 283 288 288 287 228 205 198 197 193 194 171 271 147 72 6 343 344 343 323 292 251 235 221 103 145 133 162 179 152 151 170 181 171 163 170 172 160
282 281 277 269 258 252 249 263 278 287 295 297 290 284 283 284 283 281 278 271 249 225 203 202 197 192 174 200 243 256 325 343 345 335 336 341 249 252 266 239 173 173 168 129 137 157 163 175 188 199 180 155 151 162
278 269 255 251 242 237 253 271 284 292 301 301 301 293 288 284 279 272 257 246 228 209 198 200 201 206 207 228 260 315 320 330 331 345 321 314 305 280 263 222 184 175 172 153 162 176 180 188 191 176 156 149 156 156
264 249 240 235 229 243 261 284 292 302 306 309 305 295 286 277 269 255 241 229 213 197 195 199 201 211 230 243 261 252 284 332 294 291 290 242 326 183 163 179 167 169 163 159 169 171 191 187 159 151 151 150 149 151
243 234 223 219 233 251 277 289 297 307 316 315 310 300 286 273 258 242 226 213 198 191 191 203 210 220 236 247 247 254 299 311 297 286 268 244 202 148 147 159 160 163 163 166 164 180 180 154 143 146 146 144 143 142
219 207 209 219 239 263 289 295 302 314 318 316 312 305 279 265 246 215 204 193 188 182 193 201 214 240 235 243 250 265 318 326 314 259 254 149 145 139 149 155 153 158 161 164 164 156 148 137 136 135 135 136 138 139
190 198 213 229 252 277 287 294 311 316 316 315 313 291 314 306 227 191 179 176 178 186 197 212 245 251 248 258 273 296 318 324 296 146 136 129 138 143 144 145 150 153 156 149 145 128 132 132 132 134 133 137 143 150
205 222 238 254 267 273 275 296 310 311 316 314 302 267 322 339 164 157 157 167 169 175 193 219 237 249 242 250 283 312 331 99 143 136 127 140 142 140 139 142 150 153 148 138 132 134 127 126 133 143 143 144 148 150
240 258 279 281 257 247 271 302 310 312 320 313 286 229 221 150 147 151 159 170 178 189 202 209 212 209 232 256 300 332 109 136 141 136 139 146 143 139 140 144 141 133 134 137 137 136 141 152 154 150 149 151 153 154
221 243 257 258 253 265 281 294 309 318 320 290 228 179 159 156 152 155 166 181 187 194 207 206 195 202 221 270 326 142 130 142 140 143 146 153 148 146 143 140 137 137 137 142 149 154 157 152 155 157 161 161 162 163
261 256 255 257 263 273 285 298 302 317 304 216 170 164 167 166 167 166 171 184 198 210 210 200 188 209 236 271 100 141 141 145 146 151 153 158 157 154 154 155 155 158 161 158 155 156 159 162 165 166 167 168 169 167
281 269 250 250 260 270 275 285 295 311 247 186 169 175 175 171 170 177 185 195 208 215 202 193 193 206 237 246 158 145 147 152 155 158 158 159 161 161 162 165 168 171 174 174 171 167 164 167 167 167 167 168 173 173
267 256 245 241 245 254 262 263 290 291 202 185 178 182 183 176 168 170 185 204 213 208 198 197 191 209 216 199 157 152 154 158 162 166 165 164 166 169 174 176 178 180 183 185 181 174 171 173 180 182 180 177 170 163
268 253 259 263 256 244 240 255 278 244 189 183 183 188 185 180 174 176 188 200 202 200 203 203 196 203 206 184 163 159 159 164 168 172 172 172 173 175 174 175 177 179 184 187 187 187 189 189 186 182 174 173 171 177
339 240 213 185 184 205 238 247 249 206 185 179 186 191 188 182 179 185 190 192 192 199 205 207 200 198 201 190 170 168 166 168 174 180 178 174 173 173 174 178 183 186 188 194 200 210 215 211 202 195 190 188 193 199
32 76 121 149 188 226 245 227 208 190 181 172 186 194 193 187 186 191 191 190 190 193 199 206 202 197 199 197 179 175 176 176 177 186 186 175 172 175 179 184 189 191 197 200 201 201 199 200 203 206 210 215 219 223
344 17 3 328 262 242 235 230 190 184 186 176 175 193 194 192 193 195 195 191 193 191 190 197 196 196 201 202 192 183 182 186 189 190 194 189 182 175 169 168 182 218 216 212 209 205 202 203 205 209 216 223 229 235
239 246 283 332 5 314 227 223 200 187 189 188 182 191 198 197 197 196 197 198 199 198 194 194 198 195 200 205 201 194 191 190 194 197 196 194 193 185 181 193 197 197 204 204 203 205 209 213 219 228 235 240 245 248